Home   Weather   35°30'N, 79°12'W   Past weeks
Flag for USA

Past Weather in 35°30'N, 79°12'W, USA — Yesterday and Last 2 Weeks

Now
91 °F

Scattered clouds.


Feels Like: 95 °F
Forecast: 93 / 73 °F
Wind: 6 mph from North

Location: Raleigh-Durham International Airport

Current Time: May 26, 2019 at 1:27:25 pm

Latest Report: May 26, 2019 at 12:51 pm


Visibility: 10 mi

Pressure: 30.05 "Hg

Humidity: 47%

Dew Point: 68 °F

Location of 35°30'N, 79°12'WLocation

Past Weather in 35°30'N, 79°12'W — Graph

°F

35°30'N, 79°12'W Temperature Yesterday

Maximum temperature yesterday: 91 °F (at 3:51 pm)
Minimum temperature yesterday: 72 °F (at 5:51 am)
Average temperature yesterday: 81 °F

High & Low Weather Summary for the Past Weeks

 TemperatureHumidityPressure
High93 °F (May 24, 2:51 pm)100% (May 13, 10:51 am)30.29 "Hg (May 13, 10:51 am)
Low44 °F (May 15, 5:51 am)32% (May 15, 2:51 pm)29.68 "Hg (May 13, 9:33 am)
Average72 °F69%29.98 "Hg
* Reported May 11 11:51 am — May 26 11:51 am, 35°30'N, 79°12'W. Weather by CustomWeather, © 2019

Note: Actual official high and low records may vary slightly from our data, if they occured in-between our weather recording intervals... More about our weather records

Advertising

35°30'N, 79°12'W Weather History for the Previous 24 Hours

Scroll right to see more
 ConditionsComfort  
Time TempWeatherWind HumidityBarometerVisibility
11:51 am
Sun, May 26
88 °FPassing clouds.8 mph52%30.08 "Hg10 mi
10:51 am86 °FPassing clouds.5 mph63%30.09 "Hg10 mi
9:51 am81 °FPassing clouds.3 mph79%30.09 "Hg10 mi
8:51 am78 °FPassing clouds.5 mph87%30.09 "Hg7 mi
7:51 am76 °FPassing clouds.9 mph94%30.09 "Hg7 mi
6:51 am73 °FPassing clouds.5 mph97%30.09 "Hg7 mi
5:51 am73 °FFog.3 mph97%30.07 "Hg5 mi
4:51 am73 °FFog.No wind97%30.06 "Hg6 mi
3:51 am73 °FFog.7 mph97%30.05 "Hg6 mi
2:51 am75 °FPartly cloudy.8 mph94%30.05 "Hg8 mi
2:24 am75 °FPartly cloudy.8 mph94%30.08 "Hg8 mi
2:00 am76 °FLight rain. Overcast.13 mph91%30.10 "Hg9 mi
12:51 am77 °FPassing clouds.10 mph82%30.06 "Hg10 mi
11:51 pm
Sat, May 25
79 °FPassing clouds.13 mph77%30.08 "Hg10 mi
10:51 pm80 °FPassing clouds.10 mph71%30.09 "Hg10 mi
9:51 pm83 °FPassing clouds.7 mph68%30.07 "Hg10 mi
8:51 pm84 °FPassing clouds.3 mph57%30.06 "Hg10 mi
7:51 pm87 °FPassing clouds.5 mph50%30.05 "Hg10 mi
6:51 pm90 °FScattered clouds.6 mph43%30.06 "Hg10 mi
5:51 pm91 °FScattered clouds.8 mph42%30.05 "Hg10 mi
4:51 pm91 °FScattered clouds.9 mph42%30.07 "Hg10 mi
3:51 pm91 °FPassing clouds.8 mph42%30.09 "Hg10 mi
2:51 pm89 °FPassing clouds.7 mph42%30.11 "Hg10 mi
1:51 pm88 °FPassing clouds.6 mph43%30.13 "Hg10 mi
Weather by CustomWeather, © 2019

See weather overview